Regional Weather Roundup
Issued by NWS

Home | Current Version | Previous Version | Text Only | Print | Product List | Glossary On
Versions: 1 2 3 4 5 6 7 8 9 10 11 12 13 14 15 16 17 18 19 20 21 22 23 24 25 26 27 28 29 30 31 32 33 34 35 36 37 38 39 40 41 42 43 44 45 46 47 48 49 50
282
ASUS43 KLMK 192202
RWRKY
KENTUCKY REGIONAL WEATHER ROUNDUP
NATIONAL WEATHER SERVICE LOUISVILLE KY
500 PM EST FRI JAN 19 2018

NOTE "FAIR" INDICATES FEW OR NO CLOUDS BELOW 12,000 FEET
WITH NO SIGNIFICANT WEATHER AND/OR OBSTRUCTIONS TO VISIBILITY.

KYZ001>023-026-027-061>063-070>075-192300-
WESTERN AND SOUTH CENTRAL KENTUCKY

CITY           SKY/WX    TMP DP  RH WIND       PRES   REMARKS
PADUCAH        FAIR      41  18  39 VRB7G18   30.10F
HENDERSON      FAIR      40  21  46 S12       30.10F WCI  33
OWENSBORO      FAIR      38  23  55 S10       30.12R WCI  31
HOPKINSVILLE   CLOUDY    44  18  36 S8        30.14S
BOWLING GREEN  FAIR      42  23  46 S8        30.15F
GLASGOW        NOT AVBL
$$

KYZ024-025-028>034-038-045-046-053-192300-
NORTH CENTRAL KENTUCKY

CITY           SKY/WX    TMP DP  RH WIND       PRES   REMARKS
LOUISVILLE/SDF MOCLDY    43  22  43 S12       30.10S
LOUISVILLE/LOU FAIR      42  22  44 S12       30.11S
FORT KNOX      PTCLDY    39  21  48 S13       30.12F WCI  32
$$

KYZ035>037-039>044-047>052-055>060-089>105-192300-
NORTHEAST KENTUCKY

CITY           SKY/WX    TMP DP  RH WIND       PRES   REMARKS
LEXINGTON      FAIR      39  20  46 S10       30.12R WCI  32
COVINGTON      MOCLDY    38  20  48 S16       30.05S WCI  29
FRANKFORT      FAIR      40  18  41 S12       30.11R WCI  33
$$

KYZ054-064>069-076>088-106>120-192300-
SOUTHEAST KENTUCKY

CITY           SKY/WX    TMP DP  RH WIND       PRES   REMARKS
JACKSON        FAIR      42  12  29 VRB3      30.12F
LONDON         FAIR      44   9  23 SW7       30.14F
SOMERSET       NOT AVBL
MIDDLESBORO    FAIR      41  16  35 S7        30.19F
MONTICELLO     FAIR      42  18  37 W15       30.18
$$





USA.gov is the U.S. government's official web portal to all federal, state and local government web resources and services.